Flag for Spain Weather past 2 weeks in Almería, Spain

Now
78 °F

Warm.


Feels Like: 80 °F
Forecast: 65 / 84 °F
Wind: 2 mph from West

Location: Almeria / Aeropuerto

Current Time: Aug 23, 2014 at 12:46:09 AM

Latest Report: Aug 23, 2014 at 12:00 AM


Visibility: N/A

Pressure: 29.91 "Hg

Humidity: 71%

Dew point: 68 °F

Location of AlmeríaLocation

Historic Weather in Almería — Graph

°F

Almería temperature yesterday

Maximum temperature yesterday: 84 °F (at 4:00 PM)
Minimum temperature yesterday: 74 °F (at 7:00 AM)
Average temperature yesterday: 80 °F

Past Weeks' High & Low Weather Summary

 TemperatureHumidityPressure
High94 °F (Aug 14, 2:00 PM)92% (Aug 9, 3:00 AM)30.07 "Hg (Aug 9, 3:00 AM)
Low73 °F (Aug 9, 6:00 AM)27% (Aug 18, 11:00 AM)29.78 "Hg (Aug 13, 7:00 PM)
Average81 °F70%29.92 "Hg
* Reported Aug 7 11:00 PM — Aug 22 11:00 PM, Almería, Weather by CustomWeather, © 2014

Note: Actual official high and low records may vary slightly from our data, if they occured in-between our weather recording intervals... More about our weather records

Advertising

Almería weather history for previous 24 hours

 ConditionsComfort  
Time TempWeatherWind HumidityBarometerVisibility
11:00 PM
Aug 22
79 °FWarm.10 mph68%29.90 "HgN/A
10:00 PM80 °FWarm.14 mph69%29.88 "HgN/A
9:00 PM82 °FWarm.12 mph58%29.86 "HgN/A
8:00 PM81 °FPassing clouds.16 mph66%29.86 "Hg19 mi
7:00 PM83 °FWarm.15 mph62%29.87 "HgN/A
6:00 PM83 °FWarm.14 mph62%29.88 "HgN/A
5:00 PM84 °FPassing clouds.14 mph66%29.89 "Hg19 mi
4:00 PM84 °FWarm.12 mph66%29.91 "HgN/A
3:00 PM83 °FWarm.10 mph69%29.94 "HgN/A
2:00 PM83 °FPassing clouds.9 mph66%29.95 "Hg19 mi
1:00 PM82 °FWarm.7 mph68%29.97 "HgN/A
12:00 PM81 °FWarm.9 mph71%29.98 "HgN/A
11:00 AM81 °FPassing clouds.5 mph70%29.96 "Hg6 mi
10:00 AM79 °FWarm.1 mph74%29.96 "HgN/A
9:00 AM77 °FWarm.3 mph76%29.95 "HgN/A
8:00 AM75 °FPassing clouds.2 mph81%29.93 "Hg4 mi
7:00 AM74 °FMild.3 mph81%29.94 "HgN/A
6:00 AM75 °FMild.2 mph80%29.93 "HgN/A
5:00 AM77 °FPassing clouds.2 mph80%29.93 "Hg19 mi
4:00 AM78 °FWarm.5 mph83%29.94 "HgN/A
3:00 AM79 °FWarm.No wind81%29.94 "HgN/A
2:00 AM78 °FWarm.2 mph83%29.95 "HgN/A
1:00 AM78 °FWarm.2 mph83%29.95 "HgN/A
12:00 AM78 °FWarm.No wind84%29.95 "HgN/A
Weather by CustomWeather, © 2014

See weather overviewHow to use our weather pages